Regional Weather Roundup
Issued by NWS

Home | Current Version | Previous Version | Graphics & Text | Print | Product List | Glossary Off
Versions: 1 2 3 4 5 6 7 8 9 10 11 12 13 14 15 16 17 18 19 20 21 22 23 24 25 26 27 28 29 30 31 32 33 34 35 36 37 38 39 40 41 42 43 44 45 46 47 48 49 50

000
ASUS43 KTOP 242359
RWRKS

WEATHER ROUNDUP FOR KANSAS
NATIONAL WEATHER SERVICE GOODLAND KS
700 PM CDT FRI MAR 24 2017

NOTE:  "FAIR" INDICATES FEW OR NO CLOUDS BELOW 12,000 FEET WITH NO
SIGNIFICANT WEATHER AND/OR OBSTRUCTIONS TO VISIBILITY.

KSZ001>006-013>018-027>032-041>047-250100-
NORTHWEST KANSAS

CITY           SKY/WX    TMP DP  RH WIND       PRES   REMARKS
GOODLAND       CLOUDY    39  38  96 N20       30.04S WCI  29
6HR MIN TEMP:  37; 6HR MAX TEMP:  41; 6HR PCP:  0.05;

HAYS             N/A     46  40  79 N28G33    29.91R
HILL CITY      CLOUDY    43  40  89 N14G28    29.98R
6HR MIN TEMP:  43; 6HR MAX TEMP:  47;

RUSSELL        CLOUDY    46  41  82 N23G33    29.89R
6HR MIN TEMP:  46; 6HR MAX TEMP:  73;

$$

KSZ061>065-074>080-084>089-250100-
SOUTHWEST KANSAS

CITY           SKY/WX    TMP DP  RH WIND       PRES   REMARKS
DODGE CITY     CLOUDY    46  42  86 N23G33    29.91R
6HR MIN TEMP:  46; 6HR MAX TEMP:  69; 6HR PCP:  0.04;

ELKHART          N/A     43  28  55 NW24        N/A
GARDEN CITY    CLOUDY    43  39  86 N26G36    29.95R
6HR MIN TEMP:  43; 6HR MAX TEMP:  62; 6HR PCP: TRACE;

LIBERAL        CLOUDY    46  37  71 N33G40    29.93R
$$

KSZ066>073-081>083-090>101-250100-
SOUTHEAST KANSAS

CITY           SKY/WX    TMP DP  RH WIND       PRES   REMARKS
CHANUTE        CLOUDY    64  57  78 SE6       29.78R
6HR MIN TEMP:  64; 6HR MAX TEMP:  69; 6HR PCP: TRACE;

COFFEYVILLE    PTCLDY    67  58  72 SE13      29.74S
6HR MIN TEMP:  64; 6HR MAX TEMP:  69; 6HR PCP: TRACE;

HUTCHINSON     TSTM      58  50  75 N9        29.81R
6HR MIN TEMP:  58; 6HR MAX TEMP:  78; 6HR PCP:  0.07;

MEDICINE LODGE   N/A     68  29  23 W12       29.73R
NEWTON         RAIN      55  49  80 SW6       29.81R
PARSONS        MOCLDY    66  57  72 SE9       29.77R
6HR MIN TEMP:  65; 6HR MAX TEMP:  69;

WICHITA INTL   LGT RAIN  62  59  90 NE12      29.74R
6HR MIN TEMP:  61; 6HR MAX TEMP:  76; 6HR PCP:  0.29;

WICHITA JABRA  TSTM      60  49  66 W10       29.75R
6HR MIN TEMP:  60; 6HR MAX TEMP:  75; 6HR PCP: TRACE;

WICHITA MCCONL TSTM      61  54  77 E3        29.75R
WINFIELD       MOCLDY    68  54  60 SE10      29.72R
6HR MIN TEMP:  58; 6HR MAX TEMP:  73; 6HR PCP:  0.03;

$$

KSZ007>012-019>026-033>040-048>060-102>105-250100-
NORTHEAST KANSAS

CITY           SKY/WX    TMP DP  RH WIND       PRES   REMARKS
CONCORDIA      CLOUDY    46  43  89 N21G30    29.87S
6HR MIN TEMP:  46; 6HR MAX TEMP:  60;

EMPORIA        MOCLDY    66  56  70 SE6       29.77R
6HR MIN TEMP:  66; 6HR MAX TEMP:  73;

LAWRENCE       CLOUDY    65  58  78 E12       29.80S
6HR MIN TEMP:  64; 6HR MAX TEMP:  68; 6HR PCP:  0.01;

MANHATTAN      TSTM      62  54  74 N9        29.78S
6HR MIN TEMP:  60; 6HR MAX TEMP:  71; 6HR PCP:  0.03;

OLATHE IND     CLOUDY    62  57  83 SE13      29.82F
6HR MIN TEMP:  62; 6HR MAX TEMP:  67; 6HR PCP:  0.01;

OLATHE EXE     CLOUDY    60  59  96 SE10      29.82F
6HR MIN TEMP:  60; 6HR MAX TEMP:  66; 6HR PCP:  0.01;

SALINA         CLOUDY    56  47  71 N26G36    29.81R
6HR MIN TEMP:  56; 6HR MAX TEMP:  81;

TOPEKA BILLARD MOCLDY    65  58  78 E14       29.77F
6HR MIN TEMP:  65; 6HR MAX TEMP:  70; 6HR PCP: TRACE;

TOPEKA FORBES  MOCLDY    68  56  65 SE14      29.77F
6HR MIN TEMP:  68; 6HR MAX TEMP:  72; 6HR PCP: TRACE;

$$




USA.gov is the U.S. government's official web portal to all federal, state and local government web resources and services.